Regional Weather Roundup
Issued by NWS Sterling, VA

Home | Current Version | Previous Version | Text Only | Print | Product List | Glossary Off
Versions: 1 2 3 4 5 6 7 8 9 10 11 12 13 14 15 16 17 18 19 20 21 22 23 24 25 26 27 28

000
ASUS41 KLWX 232110
RWRLWX

REGIONAL WEATHER ROUNDUP
NATIONAL WEATHER SERVICE BALTIMORE MD/WASHINGTON DC
500 PM EDT SAT SEP 23 2017

Note: "FAIR" indicates few or no clouds below 12,000 feet
with no significant weather and/or obstructions to visibility.
 TC=TEMPERATURE CELSIUS

 * =Non NWS site. Station does not report precipitation (e.g. rain,
    snow, etc.), thunder, or fog.

DCZ001-MDZ009-015-VAZ040>042-051-053>054-232200-
WASHINGTON METRO

CITY           SKY/WX    TMP DP  RH WIND       PRES   REMARKS
WASHINGTON NAT MOSUNNY   88  58  36 N8        30.05S
DULLES         MOSUNNY   86  60  41 N7        30.06S
ANDREWS AFB    SUNNY     84  61  45 N6        30.04F
FT BELVOIR     SUNNY     87  63  43 NW9       30.04F
QUANTICO       SUNNY     85  65  51 CALM      30.06S
COLLEGE PARK*  SUNNY     86  58  38 CALM      30.04S
LEESBURG*      SUNNY     86  64  48 W3        30.07F
MANASSAS*      SUNNY     86  59  39 CALM      30.06S
GAITHERSBURG*  SUNNY     84  59  42 VRB3      30.08S

$$

MDZ006>007-011-014-232200-
BALTIMORE METRO

CITY           SKY/WX    TMP DP  RH WIND       PRES   REMARKS
BWI AIRPORT    MOSUNNY   87  55  33 NW9       30.03S
MD SCIENCE CTR   N/A     88  52  29 MISG      30.03S
MARTIN STATE   MOSUNNY   88  59  37 NW9       30.04S
ANNAPOLIS      SUNNY     87  66  49 CALM      30.03S
FORT MEADE*    SUNNY     82  54  36 N3        30.06S

$$

MDZ012-015-019>023-232200-
MARYLAND EASTERN SHORE

CITY           SKY/WX    TMP DP  RH WIND       PRES   REMARKS
OCEAN CITY     SUNNY     79  68  69 E6        30.03S
SALISBURY      SUNNY     84  67  56 NE6       30.02S
CAMBRIDGE*     SUNNY     84  66  54 VRB5      30.03S
EASTON*        SUNNY     86  63  45 N7        30.07S

$$

MDZ017>025-232200-
SOUTHERN MARYLAND

CITY           SKY/WX    TMP DP  RH WIND       PRES   REMARKS
PATUXENT RIVER MOSUNNY   84  63  49 N10G20    30.04F
ST INIGOES     SUNNY     84  64  50 N6        30.03F
LEONARDTOWN*   SUNNY     81  63  54 CALM      30.06F

$$

MDZ003>005-232200-
NORTH CENTRAL MARYLAND

CITY           SKY/WX    TMP DP  RH WIND       PRES   REMARKS
FREDERICK*     SUNNY     90  48  24 NE6       30.08S
HAGERSTOWN APT SUNNY     88  51  28 NE6       30.07S
WESTMINSTER*   SUNNY     84  54  34 N3        30.08S

$$

MDZ501>502-232200-
WESTERN MARYLAND

CITY           SKY/WX    TMP DP  RH WIND       PRES   REMARKS
OAKLAND*       SUNNY     77  50  38 CALM      30.18S
CUMBERLAND*    SUNNY     90  50  25 NE8       30.12S

$$

VAZ025>031-232200-
SHENANDOAH VALLEY

CITY           SKY/WX    TMP DP  RH WIND       PRES   REMARKS
WINCHESTER*    SUNNY     82  55  39 CALM      30.08S HAZE
FRONT ROYAL*   SUNNY     82  55  39 E5        30.08S
LURAY*         SUNNY     86  46  25 NE6       30.09S
NEW MARKET*    SUNNY     87  43  21 N5        30.07S
STAUNTON*      SUNNY     84  51  32 NE5       30.12S
WAYNESBORO*    SUNNY     83  55  37 CALM      30.12S

$$

WVZ021-048>050-054>055-232200-
EASTERN WEST VIRGINIA PANHANDLE

CITY           SKY/WX    TMP DP  RH WIND       PRES   REMARKS
MARTINSBURG    SUNNY     88  51  28 N7        30.06F
PETERSBURG*    SUNNY     91  46  21 NE6       30.09S

$$

VAZ036>039-050-232200-
CENTRAL FOOTHILLS

CITY           SKY/WX    TMP DP  RH WIND       PRES   REMARKS
CHARLOTTESVILL SUNNY     85  58  39 SE6       30.08S
CULPEPER*      SUNNY     85  61  43 N5        30.08S
ORANGE*        SUNNY     82  61  47 CALM      30.07S
GORDONSVILLE*  SUNNY     84  62  47 NE3       30.07S
WARRENTON*     SUNNY     86  54  33 NW5       30.07S

$$

VAZ055>057-232200-
NORTH AND CENTRAL PIEDMONT

CITY           SKY/WX    TMP DP  RH WIND       PRES   REMARKS
FREDERICKSBRG* SUNNY     85  64  48 CALM      30.05S
STAFFORD*      SUNNY     85  60  43 N3        30.10S

$$

NCZ024-NYZ072-PAZ021-071-VAZ022-071-232200-
OTHER REGIONAL OBSERVATIONS

CITY           SKY/WX    TMP DP  RH WIND       PRES   REMARKS
NEW YORK CITY  SUNNY     86  45  23 NE9       30.03S
PHILADELPHIA   MOSUNNY   88  57  34 N9        30.00F
PITTSBURGH     MOSUNNY   89  52  28 N8        30.12S
ROANOKE        SUNNY     87  47  24 SE8       30.09S
RICHMOND       MOSUNNY   84  64  50 N6        30.04F
RALEIGH        MOSUNNY   86  57  37 E7        30.04F

$$

ANZ530>537-232200-
MARINE OBSERVATIONS

STATION/POSITION TIME  TEMP    WIND        PRES
                       AIR SEA DIR/SP/G
                 (UTC) (F)     (DEG/KT/KT) (MB)
THOMAS PT LIGHT  2100   81 76   60/  2/  3   N/A
BALT KEY BRIDGE  2036   81     160/  4/  5 1016.8F
COVE POINT       2036   78     340/  8/ 10 1018.0F
LEWISETTA        2036   81 77   10/  7/ 12 1017.2F
SOLOMONS ISLAND  2036   81 77  350/  7/ 10 1016.9F
PINEY POINT      2048           40/  9/  9   N/A

$$





USA.gov is the U.S. government's official web portal to all federal, state and local government web resources and services.